TimeMDT,TemperatureF,Dew PointF,Humidity,Sea Level PressureIn,VisibilityMPH,Wind Direction,Wind SpeedMPH,Gust SpeedMPH,PrecipitationIn,Events,Conditions,WindDirDegrees,DateUTC
12:53 AM,27.0,18.0,69,30.19,10.0,NE,11.5,-,N/A,,Mostly Cloudy,50,2013-04-18 06:53:00
1:53 AM,27.0,17.1,66,30.19,10.0,NNE,6.9,-,N/A,,Overcast,30,2013-04-18 07:53:00
2:53 AM,27.0,17.1,66,30.18,10.0,Calm,Calm,-,N/A,,Overcast,0,2013-04-18 08:53:00
3:53 AM,26.1,19.0,75,30.18,10.0,NW,3.5,-,N/A,,Overcast,320,2013-04-18 09:53:00
4:53 AM,26.1,18.0,71,30.19,10.0,West,3.5,-,N/A,,Overcast,280,2013-04-18 10:53:00
5:53 AM,25.0,19.9,81,30.20,10.0,WNW,4.6,-,N/A,,Overcast,300,2013-04-18 11:53:00
6:53 AM,25.0,18.0,75,30.22,10.0,Calm,Calm,-,N/A,,Overcast,0,2013-04-18 12:53:00
7:53 AM,25.0,18.0,75,30.25,10.0,WSW,3.5,-,N/A,,Mostly Cloudy,250,2013-04-18 13:53:00
8:53 AM,26.1,18.0,71,30.27,10.0,Calm,Calm,-,N/A,,Scattered Clouds,0,2013-04-18 14:53:00
9:53 AM,30.0,15.1,54,30.28,10.0,Calm,Calm,-,N/A,,Mostly Cloudy,0,2013-04-18 15:53:00
10:53 AM,32.0,15.1,50,30.29,10.0,Calm,Calm,-,N/A,,Clear,0,2013-04-18 16:53:00
11:53 AM,34.0,18.0,52,30.30,10.0,Variable,4.6,-,N/A,,Overcast,0,2013-04-18 17:53:00
12:53 PM,36.0,17.1,46,30.29,10.0,North,6.9,-,N/A,,Mostly Cloudy,350,2013-04-18 18:53:00
1:53 PM,37.9,17.1,43,30.27,10.0,East,4.6,-,N/A,,Scattered Clouds,80,2013-04-18 19:53:00
2:53 PM,37.9,18.0,45,30.28,10.0,Variable,6.9,-,N/A,,Scattered Clouds,0,2013-04-18 20:53:00
3:53 PM,39.9,15.1,36,30.27,10.0,Variable,4.6,-,N/A,,Mostly Cloudy,0,2013-04-18 21:53:00
4:53 PM,39.9,15.1,36,30.27,10.0,Variable,3.5,-,N/A,,Partly Cloudy,0,2013-04-18 22:53:00
5:53 PM,41.0,15.1,35,30.28,10.0,NW,4.6,-,N/A,,Partly Cloudy,310,2013-04-18 23:53:00
6:53 PM,39.9,18.0,41,30.28,10.0,ESE,10.4,-,N/A,,Clear,110,2013-04-19 00:53:00
7:53 PM,37.0,19.9,50,30.30,10.0,ESE,8.1,-,N/A,,Clear,110,2013-04-19 01:53:00
8:53 PM,34.0,21.0,59,30.32,10.0,ESE,9.2,-,N/A,,Clear,110,2013-04-19 02:53:00
9:53 PM,32.0,21.9,66,30.34,10.0,East,6.9,-,N/A,,Clear,80,2013-04-19 03:53:00
10:53 PM,30.9,21.9,69,30.34,10.0,East,9.2,-,N/A,,Clear,100,2013-04-19 04:53:00
11:53 PM,30.9,21.9,69,30.33,10.0,East,9.2,-,N/A,,Clear,100,2013-04-19 05:53:00